Location: Newark
(39.9581°N, 97.2014°W)
Time: 18:28:38
(UTC+00:00)

Envisat - Pass Details

Date: 26 January 2020
Orbit: 764 x 766 km, 98.1° (Epoch: 17 February)

Event Time Altitude Azimuth Distance (km) Brightness Sun altitude
Rises 12:16:44 0° 25° (NNE) 3,238 6.4 -16.5°
Reaches altitude 10° 12:19:25 10° 38° (NE) 2,307 5.8 -16.0°
Maximum altitude 12:23:39 26° 95° (E) 1,468 5.4 -15.2°
Drops below altitude 10° 12:27:51 10° 151° (SSE) 2,293 6.1 -14.4°
Sets 12:30:29 0° 164° (SSE) 3,214 6.6 -13.9°
